Location: Centerville
(32.8776°N, 96.6203°W)
Time: 02:10:40
(UTC+00:00)

Cosmos 1151 Rocket - Pass Details

Date: 17 June 2021
Orbit: 592 x 616 km, 82.5° (Epoch: 27 July)

Event Time Altitude Azimuth Distance (km) Brightness Sun altitude
Rises 10:19:09 0° 339° (NNW) 2,834 6.7 -11.2°
Reaches altitude 10° 10:21:37 10° 327° (NNW) 1,927 5.6 -10.8°
Maximum altitude 10:25:08 26° 270° (W) 1,178 4.1 -10.2°
Enters shadow 10:28:23 11° 216° (SW) 1,823 4.9 -9.6°
